TimeEDT,TemperatureF,Dew PointF,Humidity,Sea Level PressureIn,VisibilityMPH,Wind Direction,Wind SpeedMPH,Gust SpeedMPH,PrecipitationIn,Events,Conditions,WindDirDegrees,DateUTC
12:53 AM,46.9,39.0,74,29.57,10.0,West,5.8,-,N/A,,Clear,280,2012-11-02 04:53:00
1:53 AM,46.9,39.9,77,29.57,10.0,West,4.6,-,N/A,,Mostly Cloudy,280,2012-11-02 05:53:00
2:53 AM,46.0,39.0,76,29.57,10.0,West,3.5,-,N/A,,Scattered Clouds,280,2012-11-02 06:53:00
3:53 AM,46.9,39.9,77,29.57,10.0,West,5.8,-,N/A,,Overcast,270,2012-11-02 07:53:00
4:53 AM,46.9,39.9,77,29.57,10.0,West,3.5,-,N/A,,Overcast,280,2012-11-02 08:53:00
5:53 AM,46.9,39.9,77,29.56,10.0,West,3.5,-,N/A,,Overcast,270,2012-11-02 09:53:00
6:53 AM,46.0,39.9,79,29.56,10.0,West,4.6,-,N/A,,Overcast,280,2012-11-02 10:53:00
7:53 AM,46.9,39.9,77,29.57,10.0,West,5.8,-,N/A,,Overcast,280,2012-11-02 11:53:00
8:53 AM,48.0,41.0,77,29.58,10.0,West,4.6,-,N/A,,Overcast,280,2012-11-02 12:53:00
9:53 AM,48.0,39.9,74,29.58,10.0,WNW,4.6,-,N/A,,Overcast,290,2012-11-02 13:53:00
10:53 AM,48.9,37.9,66,29.58,10.0,West,6.9,-,N/A,,Overcast,280,2012-11-02 14:53:00
11:53 AM,50.0,37.0,61,29.57,10.0,WNW,10.4,16.1,N/A,,Mostly Cloudy,300,2012-11-02 15:53:00
12:53 PM,50.0,36.0,59,29.56,10.0,NW,8.1,-,N/A,,Overcast,310,2012-11-02 16:53:00
1:53 PM,50.0,35.1,57,29.55,10.0,NW,11.5,18.4,N/A,,Mostly Cloudy,320,2012-11-02 17:53:00
2:53 PM,51.1,36.0,56,29.55,10.0,NW,6.9,-,N/A,,Overcast,310,2012-11-02 18:53:00
3:53 PM,51.1,36.0,56,29.55,10.0,WNW,5.8,-,N/A,,Scattered Clouds,290,2012-11-02 19:53:00
4:53 PM,50.0,35.1,57,29.55,10.0,WNW,5.8,-,N/A,,Overcast,300,2012-11-02 20:53:00
5:53 PM,50.0,35.1,57,29.57,10.0,WNW,5.8,-,N/A,,Overcast,300,2012-11-02 21:53:00
6:53 PM,48.9,35.1,59,29.59,10.0,NW,5.8,-,N/A,,Overcast,320,2012-11-02 22:53:00
7:53 PM,48.9,35.1,59,29.60,10.0,NW,9.2,-,N/A,,Overcast,320,2012-11-02 23:53:00
8:53 PM,48.0,33.1,56,29.60,10.0,NW,12.7,21.9,N/A,,Overcast,310,2012-11-03 00:53:00
9:53 PM,46.9,32.0,56,29.61,10.0,WNW,10.4,-,N/A,,Overcast,300,2012-11-03 01:53:00
10:53 PM,46.0,32.0,58,29.62,10.0,NW,11.5,21.9,N/A,,Overcast,310,2012-11-03 02:53:00
11:53 PM,43.0,32.0,65,29.62,10.0,WNW,12.7,17.3,N/A,,Clear,300,2012-11-03 03:53:00